Weather History for KBFL - August, 2013

Change the Weather History Date:

Monday, August 26, 2013

  Actual Average Record
Temperature  
Mean Temperature 79 °F 81 °F  
Max Temperature 92 °F 94 °F 107 °F (2010)
Min Temperature 66 °F 68 °F 46 °F (1903)
Degree Days  
Heating Degree Days 0    
Month to date heating degree days 0  
Since 1 June heating degree days 0  
Since 1 July heating degree days 0  
Cooling Degree Days 14    
Month to date cooling degree days 457  
Year to date cooling degree days 2015  
Since 1 June cooling degree days 1636  
Growing Degree Days 28 (Base 50)    
Moisture  
Dew Point 53 °F    
Average Humidity 46    
Maximum Humidity 63    
Minimum Humidity 28    
Precipitation  
Precipitation 0.00 in 0.00 in 0.04 in (2003)
Month to date precipitation 0.00 0.03  
Year to date precipitation 2.36 4.42  
Since 1 July precipitation T 0.03  
Snow  
Snow 0.00 in - - ()
Month to date snowfall 0.0  
Since 1 June snowfall 0.0  
Since 1 July snowfall 0.0  
Snow Depth 0.00 in    
Sea Level Pressure  
Sea Level Pressure 29.88 in    
Wind  
Wind Speed 5 mph (NW)    
Max Wind Speed 14 mph    
Max Gust Speed 18 mph    
Visibility 10 miles    
Events      
T = Trace of Precipitation, MM = Missing Value Source: NWS Daily Summary

Daily Weather History Graph

Daily Weather History Graph

Search for Another Location

Airport or City:

Trip Planner

Search our weather history database for the weather conditions in past years. The results will help you decide how hot, cold, wet, or windy it might be!

Date:

Astronomy

Aug. 26, 2013 Rise Set
Actual Time 6:24 AM PDT 7:30 PM PDT
Civil Twilight 5:57 AM PDT 7:57 PM PDT
Nautical Twilight 5:26 AM PDT 8:28 PM PDT
Astronomical Twilight 4:54 AM PDT 9:00 PM PDT
Moon 11:00 PM PDT (8/26) 12:15 PM PDT (8/26)
Length of Visible Light 13h 59m
Length of Day
13h 06m
Waning Gibbous, 65% of the Moon is Illuminated
Aug 26
Waning Gibbous
Aug 28
Last Quarter
Sep 5
New
Sep 12
First Quarter
Sep 19
Full

Hourly Weather History & Observations

Time (PDT) Temp. Heat Index Dew Point Humidity Pressure Visibility Wind Dir Wind Speed Gust Speed Precip Events Conditions
12:54 AM 79.0 °F - 46.0 °F 31% 29.87 in 10.0 mi NNE 8.1 mph - N/A   Clear
1:54 AM 77.0 °F - 48.0 °F 36% 29.87 in 10.0 mi North 6.9 mph - N/A   Clear
2:54 AM 73.0 °F - 50.0 °F 44% 29.88 in 10.0 mi WNW 8.1 mph - N/A   Clear
3:54 AM 69.1 °F - 51.1 °F 53% 29.90 in 10.0 mi NNW 4.6 mph - N/A   Clear
4:54 AM 66.9 °F - 52.0 °F 59% 29.91 in 10.0 mi NW 3.5 mph - N/A   Clear
5:54 AM 66.0 °F - 52.0 °F 60% 29.93 in 10.0 mi NNW 3.5 mph - N/A   Clear
6:54 AM 66.0 °F - 54.0 °F 65% 29.95 in 10.0 mi Calm Calm - N/A   Clear
7:54 AM 69.1 °F - 54.0 °F 58% 29.97 in 10.0 mi Calm Calm - N/A   Clear
8:54 AM 72.0 °F - 54.0 °F 53% 29.97 in 10.0 mi Calm Calm - N/A   Clear
9:54 AM 75.0 °F - 53.1 °F 46% 29.96 in 10.0 mi Variable 4.6 mph - N/A   Clear
10:54 AM 77.0 °F - 54.0 °F 45% 29.95 in 10.0 mi SSW 3.5 mph - N/A   Clear
11:54 AM 82.0 °F 81.4 °F 55.0 °F 39% 29.93 in 10.0 mi Variable 6.9 mph - N/A   Clear
12:54 PM 84.0 °F 82.9 °F 55.0 °F 37% 29.89 in 10.0 mi Variable 3.5 mph - N/A   Clear
1:54 PM 86.0 °F 84.5 °F 55.0 °F 35% 29.87 in 10.0 mi West 5.8 mph - N/A   Clear
2:54 PM 89.1 °F 87.1 °F 55.0 °F 31% 29.84 in 10.0 mi WNW 8.1 mph - N/A   Clear
3:54 PM 91.0 °F 88.9 °F 55.0 °F 29% 29.82 in 10.0 mi WNW 11.5 mph 18.4 mph N/A   Clear
4:54 PM 91.0 °F 88.9 °F 55.0 °F 29% 29.81 in 10.0 mi WNW 10.4 mph - N/A   Clear
5:54 PM 91.0 °F 88.5 °F 53.1 °F 27% 29.80 in 10.0 mi WNW 9.2 mph - N/A   Clear
6:54 PM 89.1 °F 87.1 °F 55.0 °F 31% 29.80 in 10.0 mi NW 8.1 mph - N/A   Clear
7:54 PM 86.0 °F 84.7 °F 55.9 °F 36% 29.81 in 10.0 mi WNW 4.6 mph - N/A   Mostly Cloudy
8:54 PM 84.9 °F 83.7 °F 55.9 °F 37% 29.82 in 10.0 mi North 3.5 mph - N/A   Mostly Cloudy
9:54 PM 82.0 °F - 52.0 °F 35% 29.83 in 10.0 mi North 3.5 mph - N/A   Mostly Cloudy
10:54 PM 82.9 °F - 51.1 °F 33% 29.84 in 10.0 mi NE 4.6 mph - N/A   Clear
11:54 PM 81.0 °F - 52.0 °F 36% 29.84 in 10.0 mi North 5.8 mph - N/A   Mostly Cloudy